Terrell, TX

6:39 PM CST on January 21, 2017 (GMT -0600)
Terrell

Weather History for KTRL - November, 2012

Change the Weather History Date:

Tuesday, November 6, 2012

  Actual Average (KGVT) Record (KGVT)
Temperature  
Mean Temperature 57 °F -  
Max Temperature 70 °F 65 °F 78 °F (2001)
Min Temperature 44 °F 51 °F 32 °F (2010)
Degree Days  
Heating Degree Days 8    
Growing Degree Days 7 (Base 50)    
Moisture  
Dew Point 39 °F    
Average Humidity 57    
Maximum Humidity 80    
Minimum Humidity 31    
Precipitation  
Precipitation 0.00 in - - ()
Sea Level Pressure  
Sea Level Pressure 30.11 in    
Wind  
Wind Speed 3 mph (NNW)    
Max Wind Speed 8 mph    
Max Gust Speed -    
Visibility 10 miles    
Events      
Averages and records for this station are not official NWS values.
T = Trace of Precipitation, MM = Missing Value Source: NWS Daily Summary

Daily Weather History Graph

Daily Weather History Graph

Search for Another Location

Airport or City:

Trip Planner

Search our weather history database for the weather conditions in past years. The results will help you decide how hot, cold, wet, or windy it might be!

Date:

Astronomy

Nov. 06, 2012 Rise Set
Actual Time 6:47 AM CST 5:29 PM CST
Civil Twilight 6:21 AM CST 5:55 PM CST
Nautical Twilight 5:52 AM CST 6:24 PM CST
Astronomical Twilight 5:23 AM CST 6:53 PM CST
Moon No Moon Rise 12:43 PM CST (11/6)
Length of Visible Light 11h 33m
Length of Day
10h 42m
Waning Gibbous, 53% of the Moon is Illuminated
Nov 6
Waning Gibbous
Nov 6
Last Quarter
Nov 13
New
Nov 20
First Quarter
Nov 28
Full

Hourly Weather History & Observations

Time (CST) Temp. Windchill Dew Point Humidity Pressure Visibility Wind Dir Wind Speed Gust Speed Precip Events Conditions
12:53 AM 48.9 °F - 37.9 °F 66% 30.10 in 10.0 mi Calm Calm - N/A   Clear
1:53 AM 48.9 °F - 37.9 °F 66% 30.11 in 10.0 mi Calm Calm - N/A   Clear
2:53 AM 46.9 °F - 37.9 °F 71% 30.11 in 10.0 mi North 4.6 mph - N/A   Clear
3:53 AM 46.9 °F - 37.9 °F 71% 30.10 in 10.0 mi NNW 3.5 mph - N/A   Clear
4:53 AM 45.0 °F 43.5 °F 37.0 °F 74% 30.11 in 10.0 mi North 3.5 mph - N/A   Clear
5:53 AM 44.1 °F 42.5 °F 37.0 °F 76% 30.12 in 10.0 mi North 3.5 mph - N/A   Clear
6:53 AM 48.0 °F - 37.9 °F 68% 30.14 in 10.0 mi North 6.9 mph - N/A   Clear
7:53 AM 50.0 °F - 37.9 °F 63% 30.16 in 10.0 mi NNE 5.8 mph - N/A   Clear
8:53 AM 55.0 °F - 37.9 °F 53% 30.17 in 10.0 mi NNE 6.9 mph - N/A   Clear
9:53 AM 57.9 °F - 37.9 °F 47% 30.17 in 10.0 mi North 5.8 mph - N/A   Clear
10:53 AM 61.0 °F - 37.9 °F 42% 30.17 in 10.0 mi North 6.9 mph - N/A   Clear
11:53 AM 64.0 °F - 37.9 °F 38% 30.15 in 10.0 mi Calm Calm - N/A   Clear
12:53 PM 66.9 °F - 37.0 °F 33% 30.11 in 10.0 mi North 4.6 mph - N/A   Clear
1:53 PM 69.1 °F - 37.9 °F 32% 30.07 in 10.0 mi West 6.9 mph - N/A   Clear
2:53 PM 70.0 °F - 37.9 °F 31% 30.07 in 10.0 mi WSW 8.1 mph - N/A   Clear
3:53 PM 70.0 °F - 39.0 °F 32% 30.06 in 10.0 mi SW 6.9 mph - N/A   Clear
4:53 PM 68.0 °F - 41.0 °F 37% 30.06 in 10.0 mi SW 4.6 mph - N/A   Clear
5:53 PM 63.0 °F - 41.0 °F 45% 30.07 in 10.0 mi Calm Calm - N/A   Clear
6:53 PM 55.9 °F - 42.1 °F 60% 30.09 in 10.0 mi NE 4.6 mph - N/A   Clear
7:53 PM 55.0 °F - 43.0 °F 64% 30.09 in 10.0 mi Calm Calm - N/A   Clear
8:53 PM 53.1 °F - 42.1 °F 66% 30.10 in 10.0 mi Calm Calm - N/A   Clear
9:53 PM 48.9 °F - 42.1 °F 77% 30.11 in 10.0 mi Calm Calm - N/A   Clear
10:53 PM 50.0 °F - 43.0 °F 77% 30.11 in 10.0 mi Calm Calm - N/A   Clear
11:53 PM 48.0 °F - 42.1 °F 80% 30.12 in 10.0 mi Calm Calm - N/A   Clear